This is the latest recevied weather packets stored in our database for station/object SP8EBC-11. If no packets are shown the sender has not sent any weather packets the latest 1 day(s).
| Time | Temp. | Humidity | Pressure | Rain* | Wind** | Luminosity | Snow |
|---|---|---|---|---|---|---|---|
| 1836274832 | 13.89° C | 10% | 1006.2 hPa | - | 0.89 m/s, 198° | - | - |
| 1836274712 | 13.89° C | 10% | 1006.2 hPa | - | 1.34 m/s, 197° | - | - |
| 1836274592 | 13.89° C | 10% | 1006.2 hPa | - | 1.34 m/s, 198° | - | - |
| 1836274564 | 13.89° C | 10% | 1006.3 hPa | - | 0.89 m/s, 195° | - | - |
| 1836274472 | 13.89° C | 10% | 1006.3 hPa | - | 1.34 m/s, 198° | - | - |
| 1836274444 | 13.89° C | 10% | 1006.3 hPa | - | 0.89 m/s, 198° | - | - |
| 1836274352 | 13.89° C | 10% | 1006.3 hPa | - | 1.34 m/s, 198° | - | - |
| 1836274323 | 13.89° C | 10% | 1006.3 hPa | - | 0.89 m/s, 198° | - | - |
| 1836274232 | 13.33° C | 10% | 1006.3 hPa | - | 1.34 m/s, 198° | - | - |
| 1836274202 | 13.89° C | 10% | 1006.2 hPa | - | 0.89 m/s, 197° | - | - |
| 1836274112 | 13.33° C | 10% | 1006.3 hPa | - | 1.34 m/s, 196° | - | - |
| 1836273992 | 13.33° C | 10% | 1006.2 hPa | - | 1.34 m/s, 193° | - | - |
| 1836273872 | 13.33° C | 10% | 1006.2 hPa | - | 1.34 m/s, 191° | - | - |
| 1778019749 | 11.67° C | 69% | 991.3 hPa | - | 4.02 m/s, 49° | - | - |
| 1778019628 | 11.67° C | 69% | 991.3 hPa | - | 4.02 m/s, 53° | - | - |
| 1778019509 | 11.67° C | 69% | 991.3 hPa | - | 4.92 m/s, 56° | - | - |
| 1778019389 | 11.67° C | 69% | 991.3 hPa | - | 4.47 m/s, 55° | - | - |
| 1778019269 | 11.67° C | 69% | 991.3 hPa | - | 4.92 m/s, 62° | - | - |
| 1778019148 | 11.67° C | 69% | 991.3 hPa | - | 4.47 m/s, 58° | - | - |
| 1778019028 | 11.67° C | 69% | 991.3 hPa | - | 4.47 m/s, 55° | - | - |
| 1778018908 | 11.67° C | 69% | 991.4 hPa | - | 4.02 m/s, 54° | - | - |
| 1778018789 | 11.67° C | 69% | 991.4 hPa | - | 3.58 m/s, 52° | - | - |
| 1778018668 | 11.67° C | 69% | 991.4 hPa | - | 3.58 m/s, 45° | - | - |
| 1778018548 | 11.67° C | 69% | 991.5 hPa | - | 3.58 m/s, 45° | - | - |
| 1778018428 | 11.67° C | 69% | 991.5 hPa | - | 3.58 m/s, 41° | - | - |
* Rain since midnight (hover to see other rain measurements)
** Current wind speed in m/s (hover to see current wind gust speed)